Iowa City, IA

5:35 AM CST on December 06, 2019 (GMT -0600)
Iowa City Municipal

Weather History for KIOW - October, 2019

Change the Weather History Date:

Friday, October 11, 2019

  Actual Average Record
Temperature  
Mean Temperature 46 °F 54 °F  
Max Temperature 54 °F 65 °F 87 °F (1962)
Min Temperature 37 °F 42 °F 25 °F (1987)
Degree Days  
Heating Degree Days 19 12  
Month to date heating degree days 89 110  
Since 1 July heating degree days 96 222  
Cooling Degree Days 0 0  
Month to date cooling degree days 18 10  
Year to date cooling degree days 1175 912  
Growing Degree Days 4 (Base 50)    
Moisture  
Dew Point 37 °F    
Average Humidity 68    
Maximum Humidity 86    
Minimum Humidity 49    
Precipitation  
Precipitation T in 0.10 in 1.10 in (1961)
Month to date precipitation 1.60 0.94  
Year to date precipitation 38.57 30.48  
Sea Level Pressure  
Sea Level Pressure 29.97 in    
Wind  
Wind Speed 16 mph (West)    
Max Wind Speed 26 mph    
Max Gust Speed 37 mph    
Visibility 10 miles    
Events Rain , Thunderstorm    
T = Trace of Precipitation, MM = Missing Value Source: NWS Daily Summary

Daily Weather History Graph

Daily Weather History Graph

Search for Another Location

Airport or City:

Astronomy

Oct. 11, 2019 Rise Set
Actual Time 7:13 AM CDT 6:31 PM CDT
Civil Twilight 6:45 AM CDT 6:59 PM CDT
Nautical Twilight 6:13 AM CDT 7:31 PM CDT
Astronomical Twilight 5:41 AM CDT 8:03 PM CDT
Moon 6:03 PM CDT (10/11) 4:51 AM CDT (10/11)
Length of Visible Light 12h 13m
Length of Day
11h 18m
Waxing Gibbous, 96% of the Moon is Illuminated
Oct 11
Waxing Gibbous
Oct 13
Full
Oct 21
Last Quarter
Oct 27
New
Nov 4
First Quarter

Hourly Weather History & Observations

Time (CDT) Temp. Windchill Dew Point Humidity Pressure Visibility Wind Dir Wind Speed Gust Speed Precip Events Conditions
12:10 AM 66.9 °F - 64.0 °F 90% 29.79 in 10.0 mi South 12.7 mph - 0.01 in Thunderstorm Overcast
12:18 AM 66.9 °F - 64.0 °F 90% 29.78 in 6.0 mi South 15.0 mph 23.0 mph 0.01 in   Overcast
12:45 AM 60.1 °F - 57.9 °F 93% 29.80 in 8.0 mi WSW 17.3 mph 29.9 mph 0.01 in Rain Light Rain
12:52 AM 57.0 °F - 54.0 °F 89% 29.81 in 10.0 mi West 24.2 mph 31.1 mph 0.01 in   Overcast
12:54 AM 55.9 °F - 53.1 °F 90% 29.82 in 10.0 mi West 20.7 mph 31.1 mph N/A   Overcast
1:21 AM 51.1 °F - 48.9 °F 92% 29.84 in 6.0 mi West 20.7 mph - N/A   Overcast
1:52 AM 50.0 °F - 46.9 °F 89% 29.85 in 10.0 mi West 19.6 mph 28.8 mph N/A   Overcast
2:26 AM 48.0 °F - 46.0 °F 93% 29.85 in 10.0 mi West 15.0 mph 28.8 mph N/A   Overcast
2:52 AM 48.0 °F - 46.0 °F 93% 29.87 in 4.0 mi West 18.4 mph 24.2 mph 0.00 in Rain Light Rain
3:16 AM 46.9 °F - 45.0 °F 93% 29.88 in 10.0 mi West 13.8 mph 24.2 mph 0.00 in   Overcast
3:47 AM 46.4 °F 40.1 °F 42.8 °F 87% 29.88 in 10.0 mi WNW 15.0 mph 28.8 mph 0.00 in   Overcast
3:52 AM 46.0 °F 38.5 °F 44.1 °F 93% 29.89 in 10.0 mi West 19.6 mph 25.3 mph 0.00 in   Overcast
4:08 AM 45.0 °F 37.9 °F 43.0 °F 93% 29.89 in 10.0 mi West 16.1 mph 23.0 mph N/A   Overcast
4:28 AM 44.1 °F 36.5 °F 43.0 °F 96% 29.91 in 6.0 mi West 17.3 mph 27.6 mph 0.00 in Rain Light Rain
4:52 AM 44.1 °F 36.8 °F 39.9 °F 85% 29.92 in 10.0 mi West 16.1 mph 26.5 mph 0.00 in   Overcast
5:15 AM 44.1 °F 37.7 °F 39.9 °F 85% 29.93 in 10.0 mi West 12.7 mph 25.3 mph N/A   Overcast
5:52 AM 43.0 °F 34.8 °F 37.9 °F 82% 29.95 in 10.0 mi West 18.4 mph 24.2 mph N/A   Overcast
6:04 AM 43.0 °F 36.0 °F 37.9 °F 82% 29.96 in 10.0 mi West 13.8 mph 23.0 mph N/A   Overcast
6:43 AM 42.1 °F 35.2 °F 36.0 °F 79% 29.98 in 10.0 mi WNW 12.7 mph 21.9 mph N/A   Overcast
6:52 AM 42.1 °F 34.5 °F 36.0 °F 79% 29.98 in 10.0 mi West 15.0 mph - N/A   Overcast
7:52 AM 42.1 °F 34.2 °F 33.1 °F 70% 29.99 in 10.0 mi West 16.1 mph 24.2 mph N/A   Overcast
8:52 AM 42.1 °F 33.9 °F 32.0 °F 67% 30.00 in 10.0 mi West 17.3 mph 25.3 mph N/A   Overcast
9:52 AM 42.1 °F 33.1 °F 32.0 °F 67% 30.02 in 10.0 mi West 20.7 mph 32.2 mph N/A   Overcast
10:47 AM 42.8 °F 34.3 °F 30.2 °F 61% 30.03 in 10.0 mi WNW 19.6 mph 31.1 mph N/A   Overcast
10:52 AM 43.0 °F 34.2 °F 30.0 °F 60% 30.04 in 10.0 mi West 20.7 mph 31.1 mph N/A   Overcast
11:43 AM 42.1 °F 32.6 °F 28.9 °F 60% 30.04 in 10.0 mi West 23.0 mph 29.9 mph N/A   Overcast
11:52 AM 42.1 °F 33.9 °F 28.9 °F 60% 30.05 in 10.0 mi West 17.3 mph 33.4 mph N/A   Overcast
12:06 PM 42.1 °F 33.1 °F 28.0 °F 58% 30.04 in 10.0 mi West 20.7 mph 29.9 mph N/A   Overcast
12:52 PM 43.0 °F 34.2 °F 28.9 °F 58% 30.06 in 10.0 mi West 20.7 mph 28.8 mph N/A   Overcast
1:52 PM 43.0 °F 34.5 °F 28.0 °F 56% 30.06 in 10.0 mi West 19.6 mph 31.1 mph N/A   Overcast
2:52 PM 44.1 °F 35.4 °F 27.0 °F 51% 30.06 in 10.0 mi West 21.9 mph 31.1 mph N/A   Overcast
3:52 PM 43.0 °F 34.2 °F 26.1 °F 51% 30.07 in 10.0 mi West 20.7 mph 33.4 mph N/A   Overcast
4:52 PM 42.1 °F 33.9 °F 25.0 °F 51% 30.07 in 10.0 mi West 17.3 mph 32.2 mph N/A   Overcast
5:52 PM 42.1 °F 35.7 °F 26.1 °F 53% 30.09 in 10.0 mi West 11.5 mph 24.2 mph N/A   Overcast
6:52 PM 41.0 °F 32.8 °F 25.0 °F 53% 30.10 in 10.0 mi West 16.1 mph 21.9 mph N/A   Overcast
7:52 PM 41.0 °F 33.9 °F 26.1 °F 55% 30.10 in 10.0 mi WSW 12.7 mph 20.7 mph N/A   Overcast
8:52 PM 41.0 °F 33.9 °F 26.1 °F 55% 30.10 in 10.0 mi WSW 12.7 mph - N/A   Overcast
9:52 PM 41.0 °F 34.7 °F 26.1 °F 55% 30.11 in 10.0 mi West 10.4 mph - N/A   Overcast
10:52 PM 41.0 °F 33.9 °F 24.1 °F 51% 30.11 in 10.0 mi West 12.7 mph 23.0 mph N/A   Overcast
11:52 PM 39.9 °F 33.4 °F 25.0 °F 55% 30.10 in 10.0 mi WSW 10.4 mph - N/A   Mostly Cloudy